Regional Weather Roundup
Issued by NWS Cleveland, OH

Home | Current Version | Previous Version | Text Only | Print | Product List | Glossary On
Versions: 1 2 3 4 5 6 7 8 9 10 11 12 13 14 15 16 17 18 19 20 21 22 23 24 25 26 27 28 29 30 31 32 33 34 35 36 37 38 39 40 41 42 43 44 45 46 47 48 49 50
000
ASUS41 KCLE 301902
RWRCLE
OHIO REGIONAL WEATHER ROUNDUP
NATIONAL WEATHER SERVICE CLEVELAND, OH
300 PM EDT TUE SEP 30 2014

NOTE: "FAIR" INDICATES FEW OR NO CLOUDS BELOW 12,000 FEET WITH NO
SIGNIFICANT WEATHER AND/OR OBSTRUCTIONS TO VISIBILITY.

OHZ001>008-015>018-024>027-034-035-043-044-302000-
   NORTHWEST OHIO

CITY           SKY/WX    TMP DP  RH WIND       PRES   REMARKS
DEFIANCE       CLOUDY    58  47  66 NW6       29.98F
FINDLAY        CLOUDY    59  49  69 NW7       29.96S
TOLEDO EXPRESS CLOUDY    56  49  77 N8        29.97S
TOLEDO EXEC    CLOUDY    58  49  72 N6        29.98S
LIMA           CLOUDY    57  49  74 N8        29.97F
$$

OHZ009>014-019>023-028>033-038-089-302000-
   NORTHEAST OHIO

CITY           SKY/WX    TMP DP  RH WIND       PRES   REMARKS
CLE-HOPKINS    CLOUDY    61  55  81 NW13      29.95F
CLE-LAKEFRONT  CLOUDY    61  55  81 NW10      29.93S
CUY CO. ARPT   CLOUDY    59  59 100 N12       29.94S FOG
LORAIN-ELYRIA  CLOUDY    63  54  72 N9        29.95S
ASHTABULA      PTSUNNY   65  59  81 NW12      29.91S
AKRON-CANTON   PTSUNNY   64  58  80 N12       29.91S
WOOSTER        CLOUDY    61  57  87 N9        29.93S
MANSFIELD      CLOUDY    60  55  83 N8        29.94S
YOUNGSTOWN     PTSUNNY   67  58  72 W5        29.90F
$$

OHZ042-051>053-060>062-070>072-077>081-302000-
  SOUTHWEST OHIO

CITY           SKY/WX    TMP DP  RH WIND       PRES   REMARKS
CINC-COVINGTON PTSUNNY   79  58  48 N10       29.91F
CINC-LUNKEN    PTSUNNY   78  57  48 W8        29.90F
HAMILTON       PTSUNNY   72  60  66 N8        29.93F
DAYTON         CLOUDY    62  56  80 N9        29.96F
WRIGHT-PAT AFB NOT AVBL
DAYTON GENERAL CLOUDY    66  58  75 NW7       29.93F
WILMINGTON     PTSUNNY   71  58  63 N13       29.92S
$$

OHZ036-037-039>041-045>050-054>059-063>069-073>076-082>088-302000-
  CENTRAL AND SOUTHEAST OHIO

CITY           SKY/WX    TMP DP  RH WIND       PRES   REMARKS
COLUMBUS       CLOUDY    60  57  89 NW10      29.92S FOG
OSU AIRPORT    CLOUDY    60  56  86 N9        29.93F
BOLTON FIELD   CLOUDY    61  59  94 NW8       29.94S FOG
RICKENBACK AFB CLOUDY    65  60  82 NW10      29.92S
NEWARK         CLOUDY    66  59  78 NW9       29.91F
MARION         CLOUDY    56  53  90 NW8       29.96S FOG
LANCASTER      PTSUNNY   68  59  73 NW5       29.91F
ZANESVILLE     CLOUDY    67  59  75 W6        29.91S
NEW PHILLY     CLOUDY    68  60  75 NW5       29.90F
$$


USA.gov is the U.S. government's official web portal to all federal, state and local government web resources and services.